[[{"header":{"parameterUnit":"m.s-1","parameterCategory":1,"la1":30.2991,"la2":30.254,"lo1":-89.0895,"lo2":-89.0444,"dy":0.0017,"dx":0.0017,"nx":28,"ny":28,"refTime":"2024-04-18T09:00:00:Z","depth":0,"parameterNumber":2,"parameterNumberName":"U-component_of_WINDS"},"data":[0,0,0,0,0,0,0,0,0,0,0,0,0,0,0,0,0,0,0,0,0,0,0,0,0,0,0,0,0,0,0,0,0,0,0,0,0,0,0,0,0,0,0,0,0,0,0,0,0,0,0,0,0,0,0,0,0,0,0.5995,0.5995,0,0.5972,0.5972,0.5972,0.5933,0.5932,0.5931,0.593,0.5909,0.591,0.591,0,0,0,0,0,0,0,0,0,0,0,0,0,0.6007,0.6007,0.5995,0.5995,0.5995,0.5972,0.5972,0.5972,0.5933,0.5932,0.5931,0.593,0.5909,0.591,0.591,0,0,0,0,0,0,0,0,0,0,0,0,0,0.5995,0.6007,0.5995,0.5972,0.597,0.5972,0.5972,0.5971,0.5933,0.5932,0.5931,0.593,0.5909,0.591,0.591,0.5933,0,0,0.591,0.591,0,0,0,0,0,0,0,0,0.5996,0.5994,0.5976,0.5974,0.5971,0.5954,0.5968,0.5959,0.5933,0.5947,0.593,0.5929,0.5925,0.5924,0.5922,0.5932,0.5931,0.591,0.591,0.5911,0.5911,0,0,0,0,0,0,0,0.5996,0.5995,0.5986,0.5976,0.5973,0.5964,0.5961,0.5966,0.5943,0.5946,0.5943,0.5941,0.5924,0.5922,0.5922,0.5931,0.591,0.591,0.5911,0.5911,0.5958,0.5959,0,0,0,0,0,0,0.6,0.5996,0.5987,0.5985,0.5981,0.5965,0.5961,0.5961,0.5943,0.5939,0.5942,0.5939,0.5922,0.5921,0.5921,0.5946,0.5911,0.5911,0.5911,0.5956,0.5958,0.5959,0,0,0,0,0,0,0.6001,0.6,0.5988,0.599,0.5988,0.5966,0.5965,0.5961,0.5959,0.5939,0.5935,0.5944,0.5922,0.592,0.593,0.5945,0.5911,0.5911,0.5955,0.5957,0.5958,0.5998,0,0,0,0,0,0,0.6001,0.6,0.6009,0.599,0.5988,0.5997,0.5966,0.5961,0.5959,0.5956,0.5941,0.5937,0.5921,0.593,0.593,0.5945,0.5911,0.5954,0.5956,0.5958,0.5995,0.6001,0.6006,0,0,0,0,0,0.6002,0.6021,0.6009,0.6008,0.5998,0.5998,0.5996,0.5976,0.5961,0.5969,0.5956,0.5938,0.5943,0.5931,0.5931,0.5946,0.5953,0.5955,0.5958,0.5993,0.6,0.6005,0,0,0,0,0,0,0.6043,0.6019,0.6005,0.6019,0.6011,0.5991,0.6001,0.5984,0.5981,0.5978,0.5954,0.5951,0.5963,0.5955,0.5942,0.5967,0.5945,0.5948,0.5972,0.5978,0.5983,0.5985,0.5911,0,0,0,0,0,0.6053,0.6055,0.6034,0.6048,0.6045,0.6024,0.6023,0.6008,0.5999,0.5996,0.5984,0.5976,0.5976,0.5976,0.5975,0.5994,0.599,0.6004,0.6009,0.6013,0.6016,0.6025,0.6031,0.5967,0.5967,0.5967,0,0,0.6076,0.6062,0.6065,0.6056,0.6048,0.6051,0.6021,0.6026,0.6027,0.5997,0.6004,0.5995,0.5985,0.5999,0.6005,0.5993,0.6033,0.6017,0.602,0.6021,0.6028,0.6034,0.604,0.5969,0.5969,0.5969,0,0,0.6117,0.6108,0.6118,0.611,0.6098,0.6083,0.6086,0.6069,0.6061,0.6069,0.6045,0.6047,0.6048,0.6042,0.6038,0.6077,0.6059,0.6077,0.6104,0.6113,0.6118,0.6122,0.6136,0.6141,0.608,0.608,0.608,0,0.6147,0.6149,0.6126,0.6131,0.6128,0.6099,0.611,0.6104,0.6092,0.6091,0.6078,0.6077,0.6068,0.608,0.6089,0.6087,0.609,0.6079,0.6119,0.6123,0.6127,0.6139,0.6145,0.6082,0.6082,0.6081,0.6081,0,0.6186,0.6188,0.6198,0.6186,0.6184,0.6192,0.6171,0.6171,0.6156,0.6144,0.6151,0.614,0.6135,0.6137,0.6123,0.6146,0.614,0.6123,0.6101,0.6135,0.6147,0.6151,0.6085,0.6084,0.6084,0.6083,0,0,0.6254,0.6228,0.6232,0.6226,0.621,0.6211,0.6218,0.6213,0.6214,0.6206,0.6212,0.6212,0.6196,0.6193,0.6178,0.6185,0.6216,0.6168,0.6167,0.6177,0.6241,0.6254,0.626,0.6204,0.6205,0.6206,0.6242,0,0.6292,0.6301,0.628,0.6295,0.6297,0.6269,0.6274,0.6265,0.6253,0.6253,0.624,0.6241,0.622,0.6218,0.6224,0.6211,0.6229,0.6208,0.6209,0.621,0.6213,0.6266,0.6279,0.6314,0.6246,0.6247,0.6248,0,0.6338,0.6332,0.6347,0.6329,0.6329,0.6334,0.6327,0.6327,0.6316,0.6307,0.6303,0.6284,0.629,0.6268,0.6276,0.6262,0.6261,0.6255,0.6256,0.6255,0.6231,0.6267,0.6325,0.633,0.6255,0.6254,0.6253,0,0.6386,0.6382,0.639,0.6385,0.6365,0.6369,0.6361,0.6348,0.6346,0.6341,0.6339,0.6334,0.6332,0.6329,0.631,0.6296,0.632,0.6296,0.6313,0.6313,0.632,0.632,0.6378,0.6319,0.6319,0.6319,0.6319,0,0.6432,0.6442,0.6411,0.6416,0.6426,0.6402,0.6413,0.6402,0.6391,0.6394,0.6369,0.6373,0.6347,0.6348,0.6333,0.6341,0.634,0.6333,0.6329,0.6336,0.6337,0.6335,0.6332,0.632,0.632,0.632,0.6319,0,0.6487,0.6467,0.6474,0.6453,0.6448,0.6456,0.6439,0.6443,0.6429,0.6432,0.6432,0.641,0.6409,0.639,0.6385,0.6375,0.639,0.6381,0.6393,0.6391,0.6408,0.6407,0.6468,0.6475,0.6412,0.6412,0.6413,0,0.6518,0.6524,0.6504,0.6503,0.6496,0.6496,0.6493,0.6469,0.6468,0.6455,0.6461,0.6457,0.6454,0.6454,0.6438,0.6434,0.6426,0.6447,0.6425,0.6431,0.6426,0.6426,0.6426,0.6452,0.6453,0.6454,0.6454,0,0.6574,0.6563,0.656,0.6553,0.655,0.6544,0.6536,0.6537,0.6511,0.651,0.6508,0.6505,0.65,0.6497,0.649,0.6482,0.6464,0.6461,0.6465,0.6471,0.6478,0.6475,0.6406,0.646,0.6459,0.6459,0.6459,0.6459,0.6618,0.6622,0.6608,0.6605,0.6596,0.6589,0.6592,0.6577,0.6575,0.6568,0.6554,0.6555,0.6543,0.6532,0.6525,0.6525,0.6514,0.652,0.6521,0.6523,0.6526,0.6478,0.6524,0.6524,0.6524,0.6523,0.6523,0,0.6672,0.6662,0.6659,0.6648,0.6646,0.6627,0.6618,0.6617,0.6617,0.6607,0.6604,0.6602,0.6599,0.6582,0.6577,0.6581,0.6572,0.658,0.658,0.6578,0.6536,0.6534,0.6587,0.6587,0.6587,0.6587,0.6587,0.6587,0.6701,0.6707,0.6695,0.6697,0.6686,0.6685,0.6681,0.6675,0.6666,0.6665,0.6662,0.665,0.6638,0.6632,0.6628,0.6624,0.6623,0.6634,0.6627,0.6588,0.6582,0.6576,0.6573,0.6634,0.6634,0.6669,0.6669,0.6669]},{"header":{"parameterUnit":"m.s-1","parameterCategory":1,"la1":30.2991,"la2":30.254,"lo1":-89.0895,"lo2":-89.0444,"dy":0.0017,"dx":0.0017,"nx":28,"ny":28,"refTime":"2024-04-18T09:00:00:Z","depth":0,"parameterNumber":3,"parameterNumberName":"V-component_of_WINDS"},"data":[0,0,0,0,0,0,0,0,0,0,0,0,0,0,0,0,0,0,0,0,0,0,0,0,0,0,0,0,0,0,0,0,0,0,0,0,0,0,0,0,0,0,0,0,0,0,0,0,0,0,0,0,0,0,0,0,0,0,0.5919,0.592,0,0.5998,0.5998,0.5999,0.6043,0.6043,0.6043,0.6043,0.612,0.6122,0.6124,0,0,0,0,0,0,0,0,0,0,0,0,0,0.5803,0.5805,0.5919,0.592,0.5921,0.5997,0.5998,0.6,0.6043,0.6043,0.6043,0.6043,0.6119,0.6122,0.6124,0,0,0,0,0,0,0,0,0,0,0,0,0,0.5864,0.5805,0.5919,0.5952,0.5955,0.5997,0.5999,0.6,0.6043,0.6043,0.6043,0.6043,0.6119,0.6122,0.6124,0.6138,0,0,0.6133,0.6134,0,0,0,0,0,0,0,0,0.5861,0.5868,0.5946,0.595,0.5954,0.6011,0.5986,0.6046,0.6043,0.601,0.6043,0.6044,0.6083,0.6089,0.6103,0.6142,0.6145,0.6133,0.6135,0.6136,0.6137,0,0,0,0,0,0,0,0.5856,0.5865,0.595,0.5947,0.5952,0.5961,0.597,0.5997,0.6044,0.6012,0.6016,0.6025,0.6085,0.61,0.6105,0.6146,0.6133,0.6136,0.6138,0.6139,0.6199,0.6199,0,0,0,0,0,0,0.5847,0.5861,0.5947,0.5952,0.5907,0.5963,0.5974,0.5992,0.6044,0.6052,0.6024,0.6026,0.6095,0.6102,0.6108,0.6128,0.6136,0.6139,0.6141,0.62,0.6199,0.6199,0,0,0,0,0,0,0.5845,0.5855,0.5944,0.5908,0.592,0.5965,0.5986,0.5994,0.6009,0.6053,0.6061,0.6031,0.6096,0.6104,0.6131,0.6131,0.614,0.6143,0.62,0.62,0.6199,0.6167,0,0,0,0,0,0,0.5841,0.5853,0.586,0.5908,0.5922,0.5966,0.5986,0.5995,0.6014,0.6017,0.6062,0.6069,0.6097,0.6126,0.6133,0.6135,0.6145,0.62,0.62,0.6199,0.6168,0.6166,0.6163,0,0,0,0,0,0.5837,0.5847,0.586,0.587,0.5931,0.5966,0.5974,0.6006,0.6014,0.602,0.6049,0.6068,0.613,0.6128,0.6137,0.614,0.62,0.62,0.6199,0.6169,0.6166,0.6163,0,0,0,0,0,0,0.5796,0.5854,0.5869,0.5895,0.5925,0.5973,0.5982,0.6002,0.603,0.6032,0.607,0.6079,0.6102,0.6123,0.6121,0.6156,0.6167,0.6168,0.6141,0.6138,0.6136,0.613,0.6148,0,0,0,0,0,0.5791,0.5815,0.5864,0.5882,0.5897,0.5937,0.5953,0.5976,0.6008,0.6021,0.6052,0.6082,0.6108,0.6124,0.6151,0.6171,0.6181,0.6177,0.6175,0.6173,0.6174,0.6186,0.6185,0.6198,0.6198,0.6198,0,0,0.5779,0.5813,0.5826,0.5874,0.5901,0.5925,0.5947,0.5972,0.5989,0.6024,0.6052,0.6075,0.6111,0.6134,0.6146,0.6153,0.6172,0.6173,0.6171,0.6173,0.6185,0.6184,0.6183,0.6198,0.6198,0.6198,0,0,0.5769,0.5798,0.5816,0.5842,0.5883,0.5909,0.5914,0.5959,0.5976,0.6004,0.6031,0.6052,0.6097,0.6121,0.6139,0.6139,0.6158,0.6147,0.6135,0.6146,0.6145,0.6144,0.6144,0.6143,0.6147,0.6147,0.6147,0,0.5749,0.5787,0.5823,0.5846,0.5866,0.59,0.5919,0.5942,0.5988,0.6,0.6008,0.6065,0.6091,0.6121,0.6121,0.6135,0.614,0.6142,0.6143,0.6142,0.6142,0.6142,0.6142,0.6146,0.6146,0.6146,0.6146,0,0.576,0.5786,0.5796,0.5841,0.5862,0.5883,0.5921,0.5938,0.5958,0.5983,0.6011,0.6045,0.6078,0.6087,0.6107,0.612,0.6123,0.6136,0.6148,0.6138,0.6139,0.6139,0.6144,0.6144,0.6145,0.6145,0,0,0.5727,0.5792,0.5795,0.5816,0.5863,0.5883,0.5905,0.5939,0.5953,0.5983,0.6002,0.6039,0.6052,0.6072,0.6095,0.6105,0.6103,0.6117,0.6118,0.6113,0.6118,0.6108,0.6108,0.6115,0.6116,0.6116,0.6115,0,0.5724,0.5766,0.5799,0.5828,0.5852,0.5885,0.5904,0.5934,0.5958,0.5981,0.6008,0.6034,0.6048,0.6061,0.6073,0.6101,0.6104,0.6101,0.6132,0.6133,0.6122,0.6108,0.6097,0.6095,0.6116,0.6116,0.6116,0,0.5726,0.5757,0.5789,0.5833,0.5845,0.5861,0.5896,0.5918,0.5952,0.5969,0.5992,0.6016,0.6039,0.6049,0.6081,0.6079,0.6093,0.6109,0.6109,0.6113,0.6124,0.6111,0.6096,0.6095,0.6117,0.6117,0.6117,0,0.5699,0.5748,0.5773,0.579,0.5843,0.5854,0.5876,0.5911,0.5929,0.5959,0.5971,0.6002,0.6019,0.6043,0.6074,0.6078,0.6102,0.6115,0.6116,0.6115,0.612,0.6119,0.6106,0.6129,0.6129,0.6129,0.6129,0,0.5692,0.571,0.5762,0.5777,0.5798,0.5835,0.5855,0.588,0.591,0.5931,0.596,0.5978,0.6019,0.6041,0.6066,0.6088,0.6096,0.6109,0.6115,0.6107,0.6105,0.6116,0.6117,0.6129,0.6129,0.6129,0.6129,0,0.5664,0.57,0.573,0.5778,0.579,0.5803,0.5844,0.586,0.5886,0.5911,0.5919,0.596,0.5988,0.6022,0.606,0.6077,0.6097,0.6106,0.6086,0.6089,0.6089,0.6088,0.6082,0.6083,0.6106,0.6106,0.6105,0,0.5657,0.5672,0.5722,0.5739,0.576,0.5786,0.5806,0.5842,0.5861,0.5902,0.5913,0.5943,0.597,0.6013,0.6045,0.6075,0.6085,0.6081,0.609,0.608,0.6085,0.6083,0.6085,0.6079,0.6078,0.6078,0.6078,0,0.5641,0.5658,0.5686,0.572,0.5743,0.5771,0.58,0.5812,0.5854,0.5874,0.5904,0.5924,0.5965,0.5994,0.6028,0.605,0.607,0.6075,0.6077,0.6067,0.6055,0.6061,0.6079,0.6075,0.6075,0.6075,0.6075,0.6075,0.5624,0.5639,0.5676,0.5706,0.5732,0.5759,0.5776,0.5805,0.5832,0.5868,0.5888,0.5917,0.5951,0.5999,0.602,0.6042,0.605,0.6052,0.6053,0.6053,0.605,0.6052,0.6049,0.6049,0.6049,0.6049,0.6049,0,0.5609,0.5635,0.5662,0.5703,0.5726,0.5745,0.5779,0.5796,0.5822,0.5853,0.5879,0.5913,0.5942,0.5977,0.6008,0.602,0.603,0.6026,0.6026,0.603,0.6042,0.6037,0.6018,0.6018,0.6018,0.6018,0.6018,0.6018,0.5604,0.563,0.5652,0.5691,0.5717,0.5747,0.5764,0.5788,0.5813,0.585,0.5875,0.5898,0.593,0.5964,0.5992,0.6001,0.6011,0.6005,0.6017,0.6027,0.6029,0.6032,0.6028,0.6007,0.6007,0.6003,0.6003,0.6003]}]]